Time,TemperatureF,DewpointF,PressureIn,WindDirection,WindDirectionDegrees,WindSpeedMPH,WindSpeedGustMPH,Humidity,HourlyPrecipIn,Conditions,Clouds,dailyrainin,SoftwareType,DateUTC
2013-11-27 00:13:00,39.2,38.9,29.77,West,270,0.0,-999.0,99,-99.99,,,0.03,Acu-Link.com,2013-11-27 05:13:00,
2013-11-27 00:28:00,39.7,39.4,29.74,SW,225,0.0,-999.0,99,-99.99,,,0.06,Acu-Link.com,2013-11-27 05:28:00,
2013-11-27 00:43:00,40.6,40.3,29.70,SSE,157,0.0,-999.0,99,-99.99,,,0.09,Acu-Link.com,2013-11-27 05:43:00,
2013-11-27 00:58:00,41.9,41.6,29.68,South,180,1.7,-999.0,99,-99.99,,,0.14,Acu-Link.com,2013-11-27 05:58:00,
2013-11-27 01:14:00,42.6,42.3,29.66,ENE,67,2.2,-999.0,99,-99.99,,,0.15,Acu-Link.com,2013-11-27 06:14:00,
2013-11-27 01:29:00,44.1,43.8,29.65,ESE,112,1.7,-999.0,99,-99.99,,,0.16,Acu-Link.com,2013-11-27 06:29:00,
2013-11-27 01:44:00,44.6,44.3,29.63,SE,135,3.2,-999.0,99,-99.99,,,0.17,Acu-Link.com,2013-11-27 06:44:00,
2013-11-27 01:59:00,45.0,44.7,29.62,North,0,0.0,-999.0,99,-99.99,,,0.23,Acu-Link.com,2013-11-27 06:59:00,
2013-11-27 02:14:00,45.3,45.0,29.59,ESE,112,1.1,-999.0,99,-99.99,,,0.27,Acu-Link.com,2013-11-27 07:14:00,
2013-11-27 02:30:00,46.4,46.1,29.57,South,180,2.7,-999.0,99,-99.99,,,0.33,Acu-Link.com,2013-11-27 07:30:00,
2013-11-27 02:45:00,50.7,50.4,29.56,SE,135,5.8,-999.0,99,-99.99,,,0.36,Acu-Link.com,2013-11-27 07:45:00,
2013-11-27 03:00:00,51.8,51.5,29.54,SSE,157,4.7,-999.0,99,-99.99,,,0.47,Acu-Link.com,2013-11-27 08:00:00,
2013-11-27 03:15:00,52.5,52.2,29.51,SE,135,6.3,-999.0,99,-99.99,,,0.52,Acu-Link.com,2013-11-27 08:15:00,
2013-11-27 03:31:00,52.9,52.6,29.49,ESE,112,6.8,-999.0,99,-99.99,,,0.57,Acu-Link.com,2013-11-27 08:31:00,
2013-11-27 03:46:00,53.4,53.1,29.47,SSE,157,3.7,-999.0,99,-99.99,,,0.61,Acu-Link.com,2013-11-27 08:46:00,
2013-11-27 04:01:00,53.4,53.1,29.43,ESE,112,5.3,-999.0,99,-99.99,,,0.68,Acu-Link.com,2013-11-27 09:01:00,
2013-11-27 04:16:00,53.8,53.5,29.41,SE,135,7.3,-999.0,99,-99.99,,,0.73,Acu-Link.com,2013-11-27 09:16:00,
2013-11-27 04:31:00,54.0,53.7,29.38,SE,135,4.7,-999.0,99,-99.99,,,0.83,Acu-Link.com,2013-11-27 09:31:00,
2013-11-27 04:47:00,54.1,53.8,29.35,SSE,157,6.3,-999.0,99,-99.99,,,0.91,Acu-Link.com,2013-11-27 09:47:00,
2013-11-27 05:02:00,54.5,54.2,29.35,SSE,157,6.3,-999.0,99,-99.99,,,1.00,Acu-Link.com,2013-11-27 10:02:00,
2013-11-27 05:17:00,55.4,55.1,29.32,SSE,157,7.3,-999.0,99,-99.99,,,1.16,Acu-Link.com,2013-11-27 10:17:00,
2013-11-27 05:32:00,56.1,55.8,29.29,SSW,202,6.8,-999.0,99,-99.99,,,1.24,Acu-Link.com,2013-11-27 10:32:00,
2013-11-27 05:47:00,56.8,56.5,29.28,SSE,157,7.3,-999.0,99,-99.99,,,1.37,Acu-Link.com,2013-11-27 10:47:00,
2013-11-27 06:03:00,57.0,56.7,29.29,ESE,112,8.9,-999.0,99,-99.99,,,1.45,Acu-Link.com,2013-11-27 11:03:00,
2013-11-27 06:18:00,57.7,57.4,29.26,SSE,157,9.4,-999.0,99,-99.99,,,1.55,Acu-Link.com,2013-11-27 11:18:00,
2013-11-27 06:33:00,58.5,58.2,29.25,ESE,112,8.3,-999.0,99,-99.99,,,1.59,Acu-Link.com,2013-11-27 11:33:00,
2013-11-27 06:48:00,59.0,58.7,29.23,SSE,157,5.8,-999.0,99,-99.99,,,1.65,Acu-Link.com,2013-11-27 11:48:00,
2013-11-27 07:04:00,59.4,59.1,29.23,SSE,157,7.8,-999.0,99,-99.99,,,1.69,Acu-Link.com,2013-11-27 12:04:00,
2013-11-27 07:19:00,59.5,59.2,29.22,ESE,112,5.8,-999.0,99,-99.99,,,1.75,Acu-Link.com,2013-11-27 12:19:00,
2013-11-27 07:34:00,59.5,59.2,29.23,SSW,202,3.2,-999.0,99,-99.99,,,1.83,Acu-Link.com,2013-11-27 12:34:00,
2013-11-27 07:49:00,59.7,59.4,29.21,SSE,157,4.2,-999.0,99,-99.99,,,1.98,Acu-Link.com,2013-11-27 12:49:00,
2013-11-27 08:04:00,59.7,59.4,29.24,SSE,157,3.2,-999.0,99,-99.99,,,2.09,Acu-Link.com,2013-11-27 13:04:00,
2013-11-27 08:20:00,60.3,60.0,29.22,South,180,6.3,-999.0,99,-99.99,,,2.18,Acu-Link.com,2013-11-27 13:20:00,
2013-11-27 08:35:00,60.8,60.5,29.21,SSW,202,4.7,-999.0,99,-99.99,,,2.24,Acu-Link.com,2013-11-27 13:35:00,
2013-11-27 08:50:00,60.8,60.5,29.19,SSE,157,3.7,-999.0,99,-99.99,,,2.25,Acu-Link.com,2013-11-27 13:50:00,
2013-11-27 09:05:00,61.3,61.0,29.19,South,180,4.7,-999.0,99,-99.99,,,2.26,Acu-Link.com,2013-11-27 14:05:00,
2013-11-27 09:20:00,61.7,61.4,29.19,SSW,202,4.7,-999.0,99,-99.99,,,2.26,Acu-Link.com,2013-11-27 14:20:00,
2013-11-27 09:36:00,61.7,61.4,29.18,NNW,337,2.7,-999.0,99,-99.99,,,2.28,Acu-Link.com,2013-11-27 14:36:00,
2013-11-27 09:51:00,61.5,61.2,29.18,SSW,202,1.7,-999.0,99,-99.99,,,2.28,Acu-Link.com,2013-11-27 14:51:00,
2013-11-27 10:06:00,61.3,61.0,29.18,SSE,157,4.2,-999.0,99,-99.99,,,2.29,Acu-Link.com,2013-11-27 15:06:00,
2013-11-27 10:22:00,61.2,60.9,29.16,ESE,112,1.7,-999.0,99,-99.99,,,2.29,Acu-Link.com,2013-11-27 15:22:00,
2013-11-27 10:37:00,61.0,60.7,29.17,WNW,292,0.0,-999.0,99,-99.99,,,2.34,Acu-Link.com,2013-11-27 15:37:00,
2013-11-27 10:52:00,60.8,60.5,29.16,SE,135,3.7,-999.0,99,-99.99,,,2.37,Acu-Link.com,2013-11-27 15:52:00,
2013-11-27 11:07:00,60.6,60.3,29.14,ESE,112,3.7,-999.0,99,-99.99,,,2.41,Acu-Link.com,2013-11-27 16:07:00,
2013-11-27 11:22:00,60.4,60.1,29.12,East,90,1.1,-999.0,99,-99.99,,,2.44,Acu-Link.com,2013-11-27 16:22:00,
2013-11-27 11:37:00,60.1,59.8,29.13,SE,135,0.0,-999.0,99,-99.99,,,2.47,Acu-Link.com,2013-11-27 16:37:00,
2013-11-27 11:53:00,60.1,59.8,29.11,SSE,157,1.7,-999.0,99,-99.99,,,2.48,Acu-Link.com,2013-11-27 16:53:00,
2013-11-27 12:08:00,60.1,59.8,29.09,ESE,112,1.7,-999.0,99,-99.99,,,2.49,Acu-Link.com,2013-11-27 17:08:00,
2013-11-27 12:23:00,59.9,59.6,29.08,SSE,157,1.7,-999.0,99,-99.99,,,2.50,Acu-Link.com,2013-11-27 17:23:00,
2013-11-27 12:38:00,59.7,59.4,29.09,WNW,292,0.0,-999.0,99,-99.99,,,2.51,Acu-Link.com,2013-11-27 17:38:00,
2013-11-27 12:54:00,59.7,59.4,29.08,WNW,292,0.0,-999.0,99,-99.99,,,2.54,Acu-Link.com,2013-11-27 17:54:00,
2013-11-27 13:09:00,59.7,59.4,29.06,West,270,0.0,-999.0,99,-99.99,,,2.56,Acu-Link.com,2013-11-27 18:09:00,
2013-11-27 13:24:00,54.5,53.7,29.09,ESE,112,3.2,-999.0,97,-99.99,,,2.56,Acu-Link.com,2013-11-27 18:24:00,
2013-11-27 13:39:00,52.2,51.4,29.10,West,270,3.2,-999.0,97,-99.99,,,2.58,Acu-Link.com,2013-11-27 18:39:00,
2013-11-27 13:55:00,49.8,49.3,29.12,West,270,3.7,-999.0,98,-99.99,,,2.58,Acu-Link.com,2013-11-27 18:55:00,
2013-11-27 14:10:00,48.9,48.4,29.11,West,270,2.7,-999.0,98,-99.99,,,2.58,Acu-Link.com,2013-11-27 19:10:00,
2013-11-27 14:25:00,47.8,47.3,29.11,West,270,4.2,-999.0,98,-99.99,,,2.58,Acu-Link.com,2013-11-27 19:25:00,
2013-11-27 14:40:00,47.1,46.6,29.12,West,270,2.7,-999.0,98,-99.99,,,2.60,Acu-Link.com,2013-11-27 19:40:00,
2013-11-27 14:55:00,45.9,45.4,29.11,WSW,247,2.2,-999.0,98,-99.99,,,2.61,Acu-Link.com,2013-11-27 19:55:00,
2013-11-27 15:10:00,45.0,44.5,29.12,NNW,337,3.7,-999.0,98,-99.99,,,2.62,Acu-Link.com,2013-11-27 20:10:00,
2013-11-27 15:25:00,44.4,43.9,29.10,NNW,337,1.7,-999.0,98,-99.99,,,2.62,Acu-Link.com,2013-11-27 20:25:00,
2013-11-27 15:41:00,43.9,43.6,29.09,West,270,0.0,-999.0,99,-99.99,,,2.62,Acu-Link.com,2013-11-27 20:41:00,
2013-11-27 15:56:00,43.5,43.2,29.12,West,270,1.1,-999.0,99,-99.99,,,2.62,Acu-Link.com,2013-11-27 20:56:00,
2013-11-27 16:11:00,43.3,43.0,29.11,NNW,337,2.7,-999.0,99,-99.99,,,2.62,Acu-Link.com,2013-11-27 21:11:00,
2013-11-27 16:26:00,43.0,42.7,29.09,WNW,292,1.7,-999.0,99,-99.99,,,2.63,Acu-Link.com,2013-11-27 21:26:00,
2013-11-27 16:42:00,42.3,42.0,29.12,NW,315,3.2,-999.0,99,-99.99,,,2.64,Acu-Link.com,2013-11-27 21:42:00,
2013-11-27 16:57:00,42.1,41.8,29.10,SW,225,1.7,-999.0,99,-99.99,,,2.66,Acu-Link.com,2013-11-27 21:57:00,
2013-11-27 17:12:00,41.2,40.9,29.09,NNE,22,2.7,-999.0,99,-99.99,,,2.66,Acu-Link.com,2013-11-27 22:12:00,
2013-11-27 17:27:00,40.5,40.2,29.11,West,270,4.7,-999.0,99,-99.99,,,2.67,Acu-Link.com,2013-11-27 22:27:00,
2013-11-27 17:42:00,40.1,39.8,29.14,West,270,1.7,-999.0,99,-99.99,,,2.69,Acu-Link.com,2013-11-27 22:42:00,
2013-11-27 17:58:00,39.4,38.9,29.12,West,270,4.2,-999.0,98,-99.99,,,2.69,Acu-Link.com,2013-11-27 22:58:00,
2013-11-27 18:13:00,39.0,38.5,29.07,North,0,1.1,-999.0,98,-99.99,,,2.70,Acu-Link.com,2013-11-27 23:13:00,
2013-11-27 18:28:00,38.5,38.0,29.11,West,270,3.7,-999.0,98,-99.99,,,2.70,Acu-Link.com,2013-11-27 23:28:00,
2013-11-27 18:43:00,38.3,37.8,29.14,WNW,292,3.7,-999.0,98,-99.99,,,2.70,Acu-Link.com,2013-11-27 23:43:00,
2013-11-27 18:58:00,38.1,37.6,29.16,SSW,202,4.2,-999.0,98,-99.99,,,2.70,Acu-Link.com,2013-11-27 23:58:00,
2013-11-27 19:14:00,37.8,37.0,29.18,WNW,292,5.8,-999.0,97,-99.99,,,2.71,Acu-Link.com,2013-11-28 00:14:00,
2013-11-27 19:29:00,37.2,36.7,29.20,WNW,292,3.2,-999.0,98,-99.99,,,2.76,Acu-Link.com,2013-11-28 00:29:00,
2013-11-27 19:44:00,37.0,36.5,29.21,WNW,292,3.7,-999.0,98,-99.99,,,2.77,Acu-Link.com,2013-11-28 00:44:00,
2013-11-27 19:59:00,36.5,36.0,29.22,NW,315,6.3,-999.0,98,-99.99,,,2.79,Acu-Link.com,2013-11-28 00:59:00,
2013-11-27 20:14:00,36.3,35.8,29.20,NNW,337,2.2,-999.0,98,-99.99,,,2.79,Acu-Link.com,2013-11-28 01:14:00,
2013-11-27 20:30:00,36.1,35.6,29.22,West,270,4.7,-999.0,98,-99.99,,,2.79,Acu-Link.com,2013-11-28 01:30:00,
2013-11-27 20:45:00,36.0,35.2,29.20,West,270,6.8,-999.0,97,-99.99,,,2.79,Acu-Link.com,2013-11-28 01:45:00,
2013-11-27 21:00:00,35.6,34.8,29.21,NW,315,6.8,-999.0,97,-99.99,,,2.80,Acu-Link.com,2013-11-28 02:00:00,
2013-11-27 21:15:00,35.6,34.8,29.23,West,270,1.1,-999.0,97,-99.99,,,2.80,Acu-Link.com,2013-11-28 02:15:00,
2013-11-27 21:31:00,35.4,34.4,29.22,SW,225,5.8,-999.0,96,-99.99,,,2.80,Acu-Link.com,2013-11-28 02:31:00,
2013-11-27 21:46:00,35.2,33.9,29.24,East,90,5.3,-999.0,95,-99.99,,,2.80,Acu-Link.com,2013-11-28 02:46:00,
2013-11-27 22:01:00,35.2,33.9,29.24,NNW,337,3.7,-999.0,95,-99.99,,,2.80,Acu-Link.com,2013-11-28 03:01:00,
2013-11-27 22:16:00,35.1,33.8,29.25,WNW,292,1.7,-999.0,95,-99.99,,,2.80,Acu-Link.com,2013-11-28 03:16:00,
2013-11-27 22:31:00,35.1,33.3,29.27,West,270,4.7,-999.0,93,-99.99,,,2.80,Acu-Link.com,2013-11-28 03:31:00,
2013-11-27 22:47:00,35.2,33.1,29.27,NNW,337,2.7,-999.0,92,-99.99,,,2.80,Acu-Link.com,2013-11-28 03:47:00,
2013-11-27 23:02:00,35.1,32.7,29.29,NNW,337,5.3,-999.0,91,-99.99,,,2.80,Acu-Link.com,2013-11-28 04:02:00,
2013-11-27 23:17:00,35.1,32.7,29.32,WNW,292,4.2,-999.0,91,-99.99,,,2.80,Acu-Link.com,2013-11-28 04:17:00,
2013-11-27 23:32:00,35.2,32.6,29.34,NW,315,3.7,-999.0,90,-99.99,,,2.80,Acu-Link.com,2013-11-28 04:32:00,
2013-11-27 23:47:00,35.8,32.0,29.36,NW,315,3.2,-999.0,86,-99.99,,,2.80,Acu-Link.com,2013-11-28 04:47:00,